Sugar Grove, IL

10:23 PM CDT on August 30, 2016 (GMT -0500)
Aurora Municipal

Weather History for KARR - October, 2013

Change the Weather History Date:

Wednesday, October 23, 2013

  Actual Average Record
Temperature  
Mean Temperature 36 °F 48 °F  
Max Temperature 46 °F 60 °F 71 °F (2010)
Min Temperature 25 °F 37 °F 21 °F (1999)
Degree Days  
Heating Degree Days 29 17  
Month to date heating degree days 269 308  
Since 1 July heating degree days 398 461  
Cooling Degree Days 0 0  
Month to date cooling degree days 14 9  
Year to date cooling degree days 745 656  
Moisture  
Dew Point 28 °F    
Average Humidity 73    
Maximum Humidity 92    
Minimum Humidity 53    
Precipitation  
Precipitation T in 0.10 in 0.77 in (2001)
Month to date precipitation 1.02 2.34  
Year to date precipitation 28.47 30.98  
Sea Level Pressure  
Sea Level Pressure 30.01 in    
Wind  
Wind Speed 9 mph (WNW)    
Max Wind Speed 18 mph    
Max Gust Speed 23 mph    
Visibility 10 miles    
Events Rain    
T = Trace of Precipitation, MM = Missing Value Source: NWS Daily Summary

Daily Weather History Graph

Daily Weather History Graph

Search for Another Location

Airport or City:

Trip Planner

Search our weather history database for the weather conditions in past years. The results will help you decide how hot, cold, wet, or windy it might be!

Date:

Astronomy

Oct. 23, 2013 Rise Set
Actual Time 7:15 AM CDT 6:00 PM CDT
Civil Twilight 6:47 AM CDT 6:28 PM CDT
Nautical Twilight 6:14 AM CDT 7:00 PM CDT
Astronomical Twilight 5:42 AM CDT 7:33 PM CDT
Moon 9:28 PM CDT (10/23) 11:34 AM CDT (10/23)
Length of Visible Light 11h 41m
Length of Day
10h 44m
Waning Gibbous, 79% of the Moon is Illuminated
Oct 23
Waning Gibbous
Oct 26
Last Quarter
Nov 3
New
Nov 9
First Quarter
Nov 17
Full

Hourly Weather History & Observations

Time (CDT) Temp. Windchill Dew Point Humidity Pressure Visibility Wind Dir Wind Speed Gust Speed Precip Events Conditions
12:52 AM 28.9 °F 22.8 °F 27.0 °F 92% 29.95 in 5.0 mi WNW 5.8 mph - N/A   Clear
1:52 AM 30.9 °F 22.8 °F 28.9 °F 92% 29.95 in 8.0 mi WNW 9.2 mph - N/A   Clear
2:52 AM 30.9 °F 23.5 °F 28.0 °F 89% 29.95 in 10.0 mi NW 8.1 mph - N/A   Clear
3:52 AM 30.0 °F 22.4 °F 27.0 °F 88% 29.95 in 10.0 mi NW 8.1 mph - N/A   Clear
4:52 AM 28.9 °F 22.8 °F 26.1 °F 89% 29.96 in 10.0 mi NW 5.8 mph - N/A   Mostly Cloudy
5:52 AM 26.1 °F 20.5 °F 24.1 °F 92% 29.98 in 10.0 mi WNW 4.6 mph - N/A   Clear
6:52 AM 27.0 °F 20.5 °F 24.1 °F 89% 29.99 in 10.0 mi NW 5.8 mph - N/A   Clear
7:52 AM 28.9 °F 21.9 °F 26.1 °F 89% 30.01 in 10.0 mi NW 6.9 mph - N/A   Partly Cloudy
8:52 AM 32.0 °F 24.2 °F 28.9 °F 88% 30.03 in 10.0 mi NW 9.2 mph - N/A   Clear
9:52 AM 37.0 °F 28.9 °F 30.9 °F 79% 30.04 in 10.0 mi NW 12.7 mph - N/A   Clear
10:52 AM 39.9 °F 33.4 °F 30.0 °F 68% 30.04 in 10.0 mi NW 10.4 mph - N/A   Scattered Clouds
11:52 AM 42.1 °F 34.2 °F 28.9 °F 60% 30.03 in 10.0 mi WNW 16.1 mph - N/A   Scattered Clouds
12:52 PM 44.1 °F 37.4 °F 28.0 °F 53% 30.02 in 10.0 mi WNW 13.8 mph 21.9 mph N/A   Mostly Cloudy
1:52 PM 43.0 °F 35.4 °F 28.0 °F 56% 30.01 in 10.0 mi West 16.1 mph - N/A   Overcast
2:52 PM 43.0 °F 36.0 °F 27.0 °F 53% 30.01 in 10.0 mi West 13.8 mph - N/A   Overcast
3:52 PM 43.0 °F 36.8 °F 28.9 °F 58% 30.02 in 10.0 mi West 11.5 mph - N/A   Overcast
4:52 PM 41.0 °F 36.4 °F 28.9 °F 62% 30.02 in 10.0 mi West 6.9 mph - 0.00 in Rain Light Rain
5:52 PM 39.9 °F 33.9 °F 27.0 °F 60% 30.03 in 10.0 mi West 9.2 mph - 0.00 in   Overcast
6:52 PM 39.0 °F 32.8 °F 28.0 °F 65% 30.04 in 10.0 mi West 9.2 mph - N/A   Overcast
7:52 PM 37.9 °F 33.5 °F 28.9 °F 70% 30.05 in 10.0 mi West 5.8 mph - N/A   Overcast
8:52 PM 36.0 °F 32.1 °F 28.9 °F 76% 30.05 in 10.0 mi West 4.6 mph - N/A   Overcast
9:52 PM 37.0 °F 32.4 °F 28.9 °F 73% 30.05 in 10.0 mi West 5.8 mph - N/A   Overcast
10:52 PM 37.0 °F 31.6 °F 28.0 °F 70% 30.05 in 10.0 mi West 6.9 mph - N/A   Overcast
11:52 PM 37.0 °F 32.4 °F 28.9 °F 73% 30.05 in 10.0 mi West 5.8 mph - N/A   Overcast